Lapse_Rate
1.7 -0.8 6.1 6.2 5.1 4.2 4.7 5.0 5.4 5.6 5.7 5.7 5.7 5.7 5.7 5.4 5.3 5.3 5.2 5.3 5.4 5.8 6.6 6.6 6.8 6.5 6.4 6.3 6.4 6.0 5.6 5.5 5.6 5.7 5.9 6.0 5.9 6.0 5.8 5.5 5.8 6.4 5.1
-1.3 4.7 6.4 6.7 6.6 6.8 6.0 5.7 5.2 5.3 5.3 5.6 5.7 5.7 5.7 5.7 5.5 5.2 5.2 5.2 5.5 6.0 6.6 6.7 6.8 6.4 6.5 6.4 6.4 6.1 5.9 5.6 5.3 5.4 5.7 5.9 5.8 5.9 5.9 5.9 6.6 5.5 5.0
-2.3 -1.4 1.1 5.6 6.2 6.8 6.8 6.9 7.0 6.1 5.4 5.5 5.8 5.8 5.8 5.7 5.6 5.4 5.4 5.2 5.4 5.8 6.2 6.8 6.6 6.3 6.2 6.1 5.9 5.9 6.0 5.8 5.7 5.4 5.8 9.1 8.1 6.0 5.8 6.3 5.6 5.3 5.1
-2.4 -3.0 -0.5 1.7 2.8 5.8 7.2 7.3 7.0 7.5 6.6 6.0 5.9 6.0 6.0 5.9 5.8 5.7 5.6 5.5 5.4 5.6 6.2 6.3 6.6 6.6 6.3 6.0 6.0 6.0 5.9 6.0 5.7 5.4 7.4 9.3 9.3 5.9 5.8 5.8 5.9 5.8 5.4
-3.0 -3.7 -2.8 -0.3 0.4 1.5 2.8 6.9 7.3 7.4 6.9 6.8 6.4 6.5 6.1 6.1 6.0 6.0 5.9 5.8 5.7 5.6 5.5 6.0 6.4 6.5 6.3 6.0 5.9 5.9 5.8 5.6 5.2 5.8 9.5 9.2 9.4 6.7 6.0 5.9 6.1 5.9 5.7
-3.3 -4.4 -4.4 -2.4 -0.9 -0.1 0.9 2.4 3.8 7.5 7.2 6.7 6.6 6.5 6.7 6.1 6.1 6.1 6.0 5.6 5.6 5.6 5.5 6.0 6.5 6.4 6.2 6.0 5.8 5.8 5.6 5.3 5.1 8.7 9.5 8.9 8.3 7.1 6.2 6.1 6.3 6.2 5.5
-3.1 -4.3 -4.9 -3.8 -2.4 -1.8 -0.8 0.8 1.6 2.8 5.9 7.5 7.3 7.2 7.2 7.0 7.1 6.4 6.0 5.6 6.0 5.7 5.5 5.9 6.4 6.3 5.9 6.0 5.8 5.8 5.4 5.1 6.9 9.4 9.4 9.2 8.3 6.6 6.3 6.0 5.9 5.9 5.7
-2.8 -3.8 -5.1 -5.1 -4.3 -3.3 -2.1 -0.6 -0.1 0.9 2.9 5.4 7.0 7.4 7.0 7.0 6.8 6.7 5.9 5.8 5.7 6.2 6.3 5.8 6.1 6.1 6.1 5.9 5.7 5.4 5.2 4.9 6.2 9.3 9.3 9.1 8.5 6.5 6.7 6.1 5.8 5.8 5.8
-2.2 -3.8 -5.3 -6.1 -5.7 -5.0 -3.8 -2.1 -1.9 -0.6 0.7 2.8 6.0 6.9 6.8 6.6 6.6 6.9 5.9 5.5 5.5 5.9 6.2 6.4 6.3 6.0 6.1 5.9 5.7 5.2 4.8 5.0 7.6 9.4 9.3 9.2 7.0 6.5 6.6 6.0 5.7 5.8 5.7
-2.0 -4.0 -5.7 -6.2 -6.1 -5.9 -4.4 -3.4 -3.2 -2.4 -1.1 0.7 4.1 6.6 7.0 6.7 6.0 5.8 5.3 5.5 5.3 5.5 5.7 5.9 6.1 6.0 6.0 5.8 5.7 5.7 4.9 4.8 6.8 9.0 9.1 9.2 6.2 6.5 6.6 6.0 5.9 6.0 5.8
-1.3 -3.3 -5.6 -6.4 -6.2 -5.9 -4.6 -4.5 -4.4 -3.2 -2.8 -0.9 1.1 5.9 5.6 7.3 7.1 7.0 6.2 5.0 4.9 5.3 5.5 5.6 5.7 6.0 5.7 5.4 5.0 4.9 4.4 7.5 7.6 8.1 9.0 7.9 5.5 6.3 6.5 5.9 5.8 5.9 5.9
-1.6 -1.8 -3.3 -5.1 -6.1 -6.2 -5.2 -5.7 -5.0 -4.7 -4.2 -2.5 -1.6 2.6 7.0 7.0 7.3 6.3 5.6 4.9 4.7 4.8 5.0 5.1 5.4 5.6 5.4 7.8 6.6 3.6 6.6 7.6 7.1 6.8 7.4 6.2 5.2 6.3 6.6 6.6 5.9 5.8 5.6
1.4 -0.1 -2.1 -3.1 -4.0 -5.2 -6.7 -6.1 -5.4 -5.6 -5.3 -3.9 -2.7 -1.9 2.2 5.1 6.0 7.2 7.1 6.5 6.1 5.6 6.9 6.6 7.4 7.8 8.1 7.6 7.5 8.3 7.9 7.2 6.1 5.5 6.5 4.9 4.8 5.9 6.7 6.5 6.6 5.9 5.1
1.4 0.5 -0.8 -2.1 -2.5 -3.4 -4.9 -5.7 -5.8 -5.2 -4.8 -4.1 -3.9 -2.1 -0.3 4.7 6.2 7.7 7.7 5.7 4.7 5.4 6.2 6.9 8.3 8.6 7.1 5.6 6.0 7.4 7.9 6.9 6.2 5.8 4.6 4.1 3.7 5.6 6.5 6.7 6.6 5.7 5.3
1.2 0.6 0.1 -0.8 -1.6 -2.6 -3.1 -4.2 -5.0 -4.5 -3.8 -4.4 -4.2 -2.9 -0.7 1.1 5.5 8.1 8.5 6.5 4.8 4.1 4.6 5.4 6.3 7.7 7.5 6.9 6.0 6.6 7.4 7.2 6.1 6.4 4.5 4.0 3.5 4.5 6.2 6.0 5.8 5.9 5.6
1.8 1.5 0.9 0.1 -0.6 -1.5 -1.9 -2.2 -2.5 -3.5 -3.7 -2.4 -3.7 -2.6 -2.7 -0.5 4.0 6.7 8.3 6.9 6.6 4.5 4.7 5.2 5.6 5.9 6.9 6.6 6.6 6.1 6.6 7.0 6.2 5.1 4.7 5.2 3.8 5.1 5.2 5.6 5.8 4.9 5.5
5.2 2.0 1.2 0.8 0.3 -0.5 -0.8 -1.1 -1.3 -1.6 -1.5 -1.8 -2.0 -3.6 -3.4 -1.2 -1.3 4.6 7.2 7.0 5.6 5.7 5.6 5.6 5.5 6.1 5.5 6.0 5.7 4.5 4.4 5.1 4.0 4.3 4.7 4.9 4.7 4.7 5.8 6.0 4.3 4.9 5.3
2.6 2.3 2.6 0.9 0.7 0.2 -0.2 -0.3 -0.5 -0.6 -0.5 -0.8 -2.5 -3.0 -2.6 -2.8 -1.4 -0.6 6.0 6.9 6.0 5.9 6.6 5.9 6.3 4.9 5.1 4.2 3.5 1.6 2.8 3.3 3.7 2.8 3.1 4.6 5.4 5.3 4.8 4.7 3.5 5.1 5.0
4.1 3.2 2.5 1.8 1.1 0.1 0.4 0.3 0.1 0.1 0.4 -0.3 -0.6 -3.2 -3.2 -3.6 -2.7 -2.5 0.9 6.8 6.9 6.4 6.9 7.3 6.2 5.0 2.7 1.6 0.2 -0.2 -0.7 -0.4 0.2 1.3 2.1 3.2 4.7 5.2 4.6 5.0 4.1 4.2 5.3
4.2 3.8 3.8 2.8 1.8 0.6 0.7 0.5 0.8 1.1 0.3 0.8 0.3 -0.8 -3.3 -3.3 -4.6 -3.6 -2.3 1.4 6.6 6.1 6.0 6.3 5.5 4.0 2.9 1.3 0.1 -0.4 -0.9 -1.0 -1.3 -0.9 0.1 1.1 4.1 5.2 4.9 4.7 4.8 4.9 5.2
3.9 3.1 3.0 2.7 2.2 1.9 1.8 0.6 0.2 0.7 1.1 2.2 1.3 -0.3 -2.3 -2.9 -3.9 -4.1 -2.7 -1.6 3.5 5.6 5.9 5.5 3.9 2.6 0.7 1.1 2.1 0.3 0.7 -0.3 -1.2 -2.1 -1.3 -0.3 0.8 4.6 4.9 5.0 5.0 4.9 5.0
4.0 3.1 2.7 2.3 2.3 2.4 2.0 2.3 2.3 2.3 2.4 2.2 2.0 0.7 -0.5 -2.3 -2.0 -2.8 -3.6 -2.3 -1.0 5.0 5.1 4.5 3.7 2.1 1.2 1.7 2.9 2.5 2.7 2.6 0.8 -1.2 -2.1 -2.0 -0.6 1.2 3.0 3.9 4.2 4.5 5.0
4.0 2.7 2.5 2.2 2.1 2.2 1.3 1.7 1.9 2.3 2.7 3.2 1.0 1.1 -0.1 -1.8 -1.7 -2.2 -2.4 -3.9 -1.3 -0.7 5.2 4.5 4.1 3.9 3.2 2.2 2.8 3.6 3.9 4.8 2.3 0.7 -1.2 -2.3 -1.4 -0.2 0.8 1.7 2.7 3.5 4.6
4.1 3.4 2.4 1.8 2.1 2.1 1.5 1.6 1.3 2.3 2.1 2.5 2.1 1.7 1.4 0.4 -1.2 -1.3 -1.4 -1.7 -3.0 -1.9 5.3 4.4 3.8 4.3 4.6 3.2 2.3 1.2 2.1 3.1 5.3 4.2 1.7 0.1 -1.6 -0.2 0.3 0.8 1.8 2.8 3.9
4.0 4.0 3.0 2.2 2.6 2.3 1.5 1.8 2.0 1.8 2.3 1.8 2.5 1.9 2.1 1.1 -0.6 -0.5 -1.0 -1.6 -2.7 -3.0 -0.5 4.7 4.1 3.6 4.3 4.8 4.1 2.0 2.6 1.2 2.3 3.9 3.5 3.1 0.7 -0.2 -0.4 1.0 1.3 2.4 3.6
4.5 3.9 3.3 2.9 2.5 2.5 1.9 1.8 1.9 1.3 1.3 1.8 1.8 2.1 1.9 1.3 -0.2 -0.8 -0.9 -1.5 -2.0 -2.7 -1.9 1.3 4.9 3.6 3.9 4.5 3.8 3.7 3.0 3.0 3.7 2.9 3.3 3.0 1.3 -0.7 -0.5 0.8 2.0 2.6 3.4
Wind_Speed
21 48 19 6 7 6 6 7 7 7 5 5 4 4 3 5 7 7 6 5 5 4 5 4 5 8 7 7 7 6 6 6 7 7 8 10 12 14 13 11 12 15 15
34 37 12 8 3 3 3 5 7 8 7 6 7 5 4 4 4 5 5 5 4 3 3 2 6 7 5 6 8 7 8 7 8 8 7 9 11 14 13 10 11 16 16
36 38 41 23 7 3 2 3 3 5 6 7 7 7 6 5 4 3 3 3 4 3 2 3 5 5 4 2 7 7 8 8 9 8 8 9 11 12 12 10 16 14 17
32 33 35 37 38 22 5 4 2 5 4 4 4 5 4 5 5 5 5 5 4 3 2 3 3 5 5 2 6 7 7 7 9 12 10 8 11 12 13 12 16 15 17
30 33 35 39 37 33 35 20 4 8 7 6 5 5 5 5 5 6 6 6 5 4 2 4 4 2 4 4 4 5 6 7 7 13 8 9 10 14 14 15 16 17 15
29 32 34 39 38 36 35 30 32 16 9 8 7 6 7 8 8 7 7 7 6 6 4 5 5 4 4 4 5 6 6 7 8 10 9 10 10 17 17 16 16 17 16
28 32 33 38 40 38 35 33 35 31 24 11 11 11 10 10 10 9 8 7 9 7 6 7 4 5 5 6 6 8 8 8 10 8 9 10 13 17 18 17 18 18 18
27 31 33 37 39 38 36 35 36 32 30 26 16 13 11 11 9 5 6 8 8 10 9 7 8 7 7 7 6 5 8 10 10 10 11 11 12 17 18 19 19 19 20
28 30 33 35 37 38 36 36 38 34 33 33 21 16 11 9 7 5 5 5 7 10 10 8 9 7 8 8 8 7 9 10 11 9 11 12 12 17 19 19 20 23 22
26 30 32 35 35 35 32 35 38 36 36 34 28 20 15 10 6 4 4 6 5 5 6 6 7 7 8 9 9 8 10 9 12 9 12 12 9 15 19 19 20 22 23
19 29 31 32 33 33 31 31 32 33 33 32 32 18 13 12 9 6 3 5 6 6 5 5 5 7 6 5 4 5 8 10 10 9 11 8 11 15 18 20 21 23 24
27 25 31 31 31 32 30 30 28 29 25 26 28 31 13 11 8 4 4 5 6 6 6 5 4 5 9 8 6 4 8 7 9 9 11 8 12 15 17 20 22 25 27
22 20 30 32 30 29 28 27 22 24 23 24 26 28 27 9 5 5 5 6 7 6 9 7 7 8 8 7 7 9 8 9 8 7 10 6 11 15 16 20 26 28 31
23 23 29 33 31 29 26 23 24 22 23 20 24 26 22 13 8 8 6 5 5 6 8 10 8 8 8 8 7 8 9 7 8 6 9 13 10 16 18 18 26 32 35
22 23 23 31 29 30 28 23 24 21 21 23 22 23 22 20 9 15 9 6 6 5 7 7 8 8 9 9 8 9 9 9 9 8 7 11 15 16 6 8 13 37 38
21 22 26 28 30 30 27 27 23 22 24 24 20 22 26 23 17 14 8 7 8 7 7 8 7 5 6 7 7 8 7 8 9 8 8 11 14 17 12 9 21 10 41
17 20 21 26 29 29 27 26 24 24 24 22 22 23 24 24 25 17 10 7 8 9 8 9 8 9 4 3 5 3 3 4 4 7 9 9 9 17 16 13 24 20 33
21 21 20 26 28 29 27 25 24 23 22 22 23 22 25 27 27 24 11 9 11 9 6 6 6 3 4 3 2 2 2 3 4 4 8 10 11 14 19 31 33 22 27
18 20 22 26 24 29 27 25 24 23 21 24 22 22 25 25 25 22 16 13 14 6 5 7 5 4 3 3 4 3 4 5 4 5 6 6 14 16 15 26 36 36 34
17 18 17 20 26 28 23 24 22 20 22 20 23 21 26 23 26 22 18 19 11 5 5 6 4 3 2 6 5 6 5 5 5 4 5 6 12 17 16 21 26 29 36
17 18 20 20 22 20 14 15 14 15 14 14 20 28 26 25 26 22 16 14 15 7 8 8 3 5 2 4 5 4 4 6 6 6 7 5 5 13 20 22 21 25 28
17 18 19 19 18 18 16 13 15 13 10 17 19 26 25 28 25 21 17 12 13 9 7 9 8 3 2 7 2 3 2 1 3 7 6 7 6 4 10 18 23 24 25
16 17 17 18 17 19 23 19 16 14 15 10 13 12 23 28 26 24 21 15 14 14 7 10 10 11 6 7 7 3 3 2 2 3 6 7 7 3 8 16 20 21 23
14 14 16 17 17 19 23 14 17 12 14 13 13 13 20 26 25 25 22 19 13 12 9 10 9 11 9 9 4 3 2 4 3 3 2 4 5 3 9 9 17 21 21
13 13 13 15 16 19 20 16 12 14 12 13 13 19 17 21 23 24 22 23 14 11 17 11 11 11 10 10 9 3 3 2 1 4 4 0 3 4 9 10 15 16 18
12 13 14 15 16 17 17 15 16 16 16 14 15 14 13 13 12 20 22 19 18 13 14 12 14 14 12 9 10 9 6 6 5 6 6 2 2 4 8 8 9 13 16
Wind_Direction
329 311 284 229 179 169 165 160 161 153 153 154 151 142 115 113 138 144 160 168 175 192 211 187 166 156 147 163 173 159 146 143 116 117 124 131 131 129 128 130 141 121 125
329 326 318 274 231 179 192 176 168 156 151 163 169 169 163 151 149 159 169 176 190 215 222 211 178 151 144 156 173 176 165 152 133 137 138 124 130 137 139 158 127 125 128
342 351 9 343 313 262 195 264 235 177 171 169 173 175 175 172 171 184 204 206 212 219 223 191 177 155 138 124 149 174 176 181 177 152 167 160 150 152 147 144 120 133 134
340 353 5 7 15 351 286 245 217 278 238 196 187 197 193 190 189 203 217 225 231 240 232 206 227 180 150 160 164 165 173 185 184 178 191 165 160 162 154 150 141 140 140
348 359 1 7 13 10 13 341 230 240 237 252 215 206 213 220 224 222 225 230 245 252 288 253 242 199 160 178 179 176 173 179 170 185 197 182 177 164 169 162 154 145 156
352 360 1 6 9 10 8 0 6 311 240 222 227 219 214 212 225 236 241 243 242 253 257 281 244 209 192 195 205 202 194 182 189 211 205 184 194 158 177 177 162 154 136
357 358 0 2 7 7 6 2 2 350 335 268 236 225 223 220 223 228 239 258 267 248 251 262 265 217 195 209 223 230 217 200 215 216 213 206 202 170 181 180 171 160 147
360 359 360 1 4 3 1 1 359 352 347 331 275 255 235 234 232 217 241 256 281 284 264 254 254 230 218 219 225 233 222 216 223 225 224 215 195 189 184 184 174 165 160
5 4 3 2 360 359 357 357 354 353 347 342 304 268 255 242 255 259 275 278 278 294 292 269 249 242 235 228 231 223 219 222 239 224 228 220 188 199 193 187 181 170 163
8 9 4 1 359 357 353 354 351 350 347 343 330 283 263 249 241 247 276 266 299 311 321 284 256 250 236 234 236 230 216 218 230 232 229 225 189 203 201 191 184 175 163
8 9 4 0 357 355 353 350 350 348 347 344 337 308 269 252 244 239 278 310 303 304 310 324 291 254 227 226 245 243 209 224 227 232 233 205 219 210 209 197 185 178 165
0 1 2 359 355 354 352 348 347 347 343 338 332 337 280 255 250 252 269 288 287 290 290 295 286 259 203 224 220 217 230 227 231 232 239 207 225 220 220 205 187 177 162
357 359 359 356 355 354 349 347 344 340 340 336 336 332 323 299 274 254 280 285 281 266 263 255 247 234 225 233 234 230 226 230 233 240 255 246 237 232 229 217 196 171 163
358 359 357 356 354 354 346 345 339 337 336 334 329 325 325 305 263 268 245 247 263 279 273 266 257 245 226 232 232 241 237 223 243 249 258 266 265 243 232 224 204 171 160
359 356 356 354 355 351 348 341 343 336 331 329 326 322 328 320 299 280 268 247 243 242 257 260 262 254 240 230 232 244 241 243 249 256 266 268 251 254 204 212 205 187 162
355 356 353 353 353 350 347 344 338 335 332 328 325 328 329 325 305 294 268 247 244 237 239 244 246 241 250 246 235 231 257 255 257 260 269 274 252 188 165 218 245 275 150
358 352 353 351 350 350 346 343 340 336 330 329 329 326 332 329 334 295 271 245 230 227 246 247 235 231 237 246 215 196 216 247 266 262 264 245 209 172 184 137 80 104 135
354 355 354 352 351 348 344 343 339 336 332 333 327 330 332 335 336 332 278 246 226 204 227 249 236 184 175 177 148 41 16 345 308 300 273 212 179 161 142 136 134 122 115
355 352 351 353 354 348 343 343 339 337 337 330 333 330 336 331 333 330 320 260 223 204 212 233 218 173 162 121 100 48 32 17 347 336 306 242 187 167 162 151 148 151 149
356 356 353 353 352 350 347 343 340 337 338 333 334 337 335 332 334 329 321 319 260 198 192 225 182 120 136 137 110 74 45 39 4 10 336 307 198 177 168 159 148 149 148
357 357 355 351 353 352 350 346 342 337 331 336 330 336 333 334 328 329 312 321 307 240 197 185 154 151 126 138 120 84 63 62 31 12 355 319 2 192 170 157 151 147 144
353 354 353 352 349 349 349 338 334 327 323 325 336 330 329 331 324 322 328 308 307 278 209 174 166 150 125 182 144 117 151 92 38 20 5 343 1 293 127 145 144 142 143
354 349 347 347 345 344 345 339 337 329 330 331 333 331 329 325 324 330 315 322 306 319 210 197 187 181 169 196 226 165 156 189 126 3 354 351 6 21 114 116 118 120 129
348 343 343 342 342 344 343 341 342 335 329 330 324 321 326 325 323 322 326 316 329 309 247 202 198 195 188 188 207 246 279 144 157 148 20 330 5 347 109 100 98 103 113
344 342 341 336 340 342 342 340 335 333 323 321 323 322 324 325 322 323 329 326 316 324 312 210 202 197 198 194 197 146 194 81 143 164 117 266 49 323 73 93 92 92 101
343 345 342 340 337 341 339 336 334 330 326 324 326 324 325 323 319 321 325 321 313 315 300 309 211 201 197 208 198 192 177 167 168 157 129 114 84 329 51 63 90 93 99